Regional Weather Roundup
Issued by NWS

Home | Current Version | Previous Version | Graphics & Text | Print | Product List | Glossary On
Versions: 1 2 3 4 5 6 7 8 9 10 11 12 13 14 15 16 17 18 19 20 21 22 23 24 25 26 27 28 29 30 31 32 33 34 35 36 37 38 39 40 41 42 43 44 45 46 47 48 49 50
000
ASUS43 KIND 201200
RWRIN

WEATHER ROUNDUP FOR INDIANA
NATIONAL WEATHER SERVICE INDIANAPOLIS IN
800 AM EDT SUN MAY 20 2018

NOTE: "FAIR" INDICATES FEW OR NO CLOUDS BELOW 12,000 FEET WITH NO
SIGNIFICANT WEATHER AND/OR OBSTRUCTIONS TO VISIBILITY.

* - STATION DOES NOT REPORT WEATHER SUCH AS PRECIPITATION OR FOG.

+ - STATION NOT QUALITY CONTROLLED BY THE NATIONAL WEATHER SERVICE.
    USE DATA WITH CAUTION...ESPECIALLY DEWPOINT AND RELATIVE
    HUMIDITY OBSERVATIONS.

INZ001>003-010>013-019-020-201300-
NORTHWEST INDIANA

CITY           SKY/WX    TMP DP  RH WIND       PRES   REMARKS
GARY /AIRPORT/ FOG       46  46 100 N8        30.14R VSB 1
MICHIGAN CITY+ FOG       50  50 100 CALM      30.13R VSB 3/4
MONTICELLO +   CLOUDY    58  57  96 E5        30.10R FOG
6HR MIN TEMP:  58; 6HR MAX TEMP:  61; 6HR PCP:  0.01;


$$

LMZ046-743>745-201300-
SOUTHERN LAKE MICHIGAN

STATION/POSITION TIME  TEMP    WIND        PRES    WAVE
                       AIR SEA DIR/SP/G            HT
                 (UTC) (F)     (DEG/KT/KT) (MB)    (FT)
BURNS HARBOR     1140   46      20/  6/  9 1020.7R
5NW MICH CITY    1150   46 53   20/ 10/ 12   N/A     2

$$

INZ004-005-014>016-021>024-201300-
NORTH CENTRAL INDIANA

CITY           SKY/WX    TMP DP  RH WIND       PRES   REMARKS
GOSHEN         CLOUDY    57  55  93 NE5       30.11R
6HR MIN TEMP:  55; 6HR MAX TEMP:  57;

PERU/GRISSOM   CLOUDY    58  58 100 NE8       30.10R
6HR MIN TEMP:  55; 6HR MAX TEMP:  60;

SOUTH BEND     CLOUDY    54  53  97 CALM      30.13R FOG
6HR MIN TEMP:  51; 6HR MAX TEMP:  56;


$$

INZ006>009-017-018-025>027-201300-
NORTHEAST INDIANA

CITY           SKY/WX    TMP DP  RH WIND       PRES   REMARKS
ANGOLA *+      CLOUDY    57  55  94 NE6       30.09R
FORT WAYNE     CLOUDY    60  57  89 E7        30.10R
6HR MIN TEMP:  58; 6HR MAX TEMP:  60;


$$

INZ028-029-035-036-043>045-051>053-201300-
WEST CENTRAL INDIANA

CITY           SKY/WX    TMP DP  RH WIND       PRES   REMARKS
GREENCASTLE +  FAIR      63  63 100 CALM      30.09R FOG
LAFAYETTE      FAIR      62  59  90 NE5       30.09R
6HR MIN TEMP:  59; 6HR MAX TEMP:  63;

TERRE HAUTE    FAIR      64  64 100 CALM      30.07R FOG
6HR MIN TEMP:  58; 6HR MAX TEMP:  68;


$$

INZ030>032-037>040-046>048-054>057-064-065-201300-
CENTRAL INDIANA

CITY           SKY/WX    TMP DP  RH WIND       PRES   REMARKS
ANDERSON       PTSUNNY   63  59  88 E5        30.10R FOG
COLUMBUS       MOSUNNY   66  63  88 CALM      30.06R FOG
INDIANAPOLIS   FAIR      66  62  87 CALM      30.08R FOG
6HR MIN TEMP:  63; 6HR MAX TEMP:  68;

-EAGLE CREEK   PTSUNNY   65  60  84 SE5       30.08R HAZE
6HR MIN TEMP:  63; 6HR MAX TEMP:  68;

KOKOMO +       CLOUDY    60  58  92 NE3       30.11R
6HR MIN TEMP:  57; 6HR MAX TEMP:  61;

MT COMFORT *+  PTSUNNY   63  63 100 CALM      30.09R
SHELBYVILLE    FOG       66  63  90 N7        30.08R VSB 1
6HR MIN TEMP:  64; 6HR MAX TEMP:  68;


$$

INZ033-034-041-042-049-050-058-059-201300-
EAST CENTRAL INDIANA

CITY           SKY/WX    TMP DP  RH WIND       PRES   REMARKS
MUNCIE         FAIR      62  57  83 E6        30.09R
6HR MIN TEMP:  59; 6HR MAX TEMP:  65;

RICHMOND +     FAIR      61  61 100 NE6       30.10R FOG

$$

INZ060-061-067>069-081>083-085>088-201300-
SOUTHWEST INDIANA

CITY           SKY/WX    TMP DP  RH WIND       PRES   REMARKS
EVANSVILLE     FAIR      67  65  93 CALM      30.08S
6HR MIN TEMP:  64; 6HR MAX TEMP:  72;

HUNTINGBURG +  PTSUNNY   67  64  90 CALM      30.10R
6HR MIN TEMP:  63; 6HR MAX TEMP:  70;


$$

INZ062-063-066-070>080-084-089>092-201300-
SOUTH CENTRAL AND SOUTHEAST INDIANA

CITY           SKY/WX    TMP DP  RH WIND       PRES   REMARKS
BLOOMINGTON    FAIR      66  63  90 SW6       30.08R
6HR MIN TEMP:  60; 6HR MAX TEMP:  67;

FRENCH LICK *+ FAIR      64 N/A N/A CALM      30.10S
SEYMOUR +      FAIR      68  66  94 CALM      30.07R FOG

$$




USA.gov is the U.S. government's official web portal to all federal, state and local government web resources and services.